Simultaneous Nadir Overpasses (SNOs) Predictions

Prediction of SNOs between LANDSAT-8 and METOP-A Satellite Orbit:

Table of predicted SNOs for the next 14.0 days since TLE Epoch: 10/24/2020
Index Date (LANDSAT-8) Time (LANDSAT-8) Lat,Lon (LANDSAT-8) SZA (LANDSAT-8 ) Date (METOP-A) Time (METOP-A) Lat,Lon (METOP-A) SZA (METOP-A ) Distance(km) Time Diff (sec)
1 10/26/2020 13:48:28 81.46, 18.96 97.14 10/26/2020 13:48:18 81.44, 18.78 97.10 3.34 10
2 10/26/2020 14:37:55 -81.45,-173.53 82.87 10/26/2020 14:38:58 -81.44,-173.64 82.86 2.28 63
3 10/29/2020 09:22:44 81.44, 84.96 98.02 10/29/2020 09:22:41 81.44, 85.14 98.04 2.97 3
4 10/29/2020 10:12:10 -81.45,-107.11 81.94 10/29/2020 10:13:21 -81.44,-107.26 81.93 2.98 71
5 11/01/2020 04:07:31 -81.45, -16.02 81.06 11/01/2020 04:06:23 -81.45, -16.19 81.11 2.87 68
6 11/01/2020 04:56:58 81.43, 151.33 98.92 11/01/2020 04:57:03 81.44, 151.49 98.94 2.83 5
7 11/03/2020 23:41:46 -81.44, 50.34 80.20 11/03/2020 23:40:46 -81.45, 50.16 80.24 3.11 60
8 11/04/2020 00:31:12 81.45,-141.95 99.83 11/04/2020 00:31:25 81.44,-141.78 99.85 3.07 13
9 11/06/2020 19:16:00 -81.46, 117.05 79.32 11/06/2020 19:15:08 -81.44, 116.88 79.37 3.12 52
